,,PA_Meas_PMT16A,,PR_Meas_QMR101_102,,RH_Meas_QMH101,,SR_Meas_QMS101,,TA_Meas_QMH101,,GenWind,,GenWind,
time,status,PA,status,PR,status,RH,status,SR,status,TA,status,DirAvg,status,SpdAvg,
2014-06-01, 06:40:04,VALID,915.927,VALID,0,VALID,97.3053,VALID,25.4636,VALID,18.5344,VALID,129,VALID,0.920703,
2014-06-01, 06:41:04,VALID,915.957,VALID,0,VALID,97.3129,VALID,26.3231,VALID,18.5553,VALID,131,VALID,0.68125,
2014-06-01, 06:42:04,VALID,915.963,VALID,0,VALID,97.3281,VALID,27.3975,VALID,18.5525,VALID,131,VALID,0.669141,
2014-06-01, 06:43:04,VALID,915.966,VALID,0,VALID,97.3053,VALID,28.4719,VALID,18.572,VALID,127,VALID,1.38867,
2014-06-01, 06:44:04,VALID,916.014,VALID,0,VALID,97.3129,VALID,29.7612,VALID,18.572,VALID,124,VALID,1.37812,
2014-06-01, 06:45:04,VALID,916.037,VALID,0,VALID,97.29,VALID,36.4226,VALID,18.5914,VALID,133,VALID,1.41289,
2014-06-01, 06:46:04,VALID,916.032,VALID,0,VALID,97.3053,VALID,49.9601,VALID,18.6109,VALID,122,VALID,1.19297,
2014-06-01, 06:47:04,VALID,916.068,VALID,0,VALID,97.2977,VALID,58.3405,VALID,18.6694,VALID,136,VALID,1.19023,
2014-06-01, 06:48:04,VALID,916.056,VALID,0,VALID,97.3053,VALID,57.3736,VALID,18.7084,VALID,140,VALID,1.10938,
2014-06-01, 06:49:04,VALID,916.063,VALID,0,VALID,97.29,VALID,52.9685,VALID,18.7279,VALID,141,VALID,1.69453,
2014-06-01, 06:50:04,VALID,916.056,VALID,0,VALID,97.2824,VALID,49.1006,VALID,18.746,VALID,134,VALID,1.21523,
2014-06-01, 06:51:04,VALID,916.059,VALID,0,VALID,97.29,VALID,50.2825,VALID,18.7864,VALID,147,VALID,0.901172,
2014-06-01, 06:52:04,VALID,916.064,VALID,0,VALID,97.2748,VALID,53.3983,VALID,18.8059,VALID,152,VALID,1.22109,
2014-06-01, 06:53:04,VALID,916.068,VALID,0,VALID,97.2824,VALID,55.6545,VALID,18.8254,VALID,149,VALID,1.1125,
2014-06-01, 06:54:04,VALID,916.112,VALID,0,VALID,97.2824,VALID,56.1917,VALID,18.8254,VALID,137,VALID,1.17109,
2014-06-01, 06:55:04,VALID,916.095,VALID,0,VALID,97.2748,VALID,57.9108,VALID,18.8463,VALID,144,VALID,0.632422,
2014-06-01, 06:56:04,VALID,916.097,VALID,0,VALID,97.2519,VALID,60.167,VALID,18.8853,VALID,146,VALID,0.494922,
2014-06-01, 06:57:04,VALID,916.127,VALID,0,VALID,97.2519,VALID,64.787,VALID,18.9034,VALID,146,VALID,0.705078,
2014-06-01, 06:58:04,VALID,916.132,VALID,0,VALID,97.2519,VALID,68.3326,VALID,18.9438,VALID,153,VALID,0.332812,
2014-06-01, 06:59:04,VALID,916.138,VALID,0,VALID,97.2443,VALID,71.4484,VALID,18.9633,VALID,154,VALID,0.567578,
2014-06-01, 07:00:04,VALID,916.147,VALID,0,VALID,97.2672,VALID,75.746,VALID,18.9633,VALID,153,VALID,0.571484,
2014-06-01, 07:01:04,VALID,916.181,VALID,0,VALID,97.2367,VALID,80.5809,VALID,18.9814,VALID,152,VALID,0.751562,
2014-06-01, 07:02:04,VALID,916.185,VALID,0,VALID,97.2519,VALID,82.8371,VALID,19.0008,VALID,142,VALID,0.938281,
2014-06-01, 07:03:04,VALID,916.236,VALID,0,VALID,97.229,VALID,86.1678,VALID,19.0413,VALID,153,VALID,1.03242,
2014-06-01, 07:04:04,VALID,916.235,VALID,0,VALID,97.2443,VALID,89.1762,VALID,19.0608,VALID,136,VALID,0.839844,
2014-06-01, 07:05:04,VALID,916.237,VALID,0,VALID,97.2214,VALID,94.3333,VALID,19.0983,VALID,135,VALID,0.951953,
2014-06-01, 07:06:04,VALID,916.236,VALID,0,VALID,97.2367,VALID,99.1682,VALID,19.1193,VALID,142,VALID,0.754687,
2014-06-01, 07:07:04,VALID,916.275,VALID,0,VALID,97.2138,VALID,101.424,VALID,19.1568,VALID,145,VALID,0.874219,
2014-06-01, 07:08:04,VALID,916.305,VALID,0,VALID,97.2062,VALID,103.573,VALID,19.2168,VALID,157,VALID,0.452734,
2014-06-01, 07:09:04,VALID,916.302,VALID,0,VALID,97.2214,VALID,107.549,VALID,19.2168,VALID,145,VALID,1.4875,
2014-06-01, 07:10:04,VALID,916.321,VALID,0,VALID,97.2062,VALID,111.094,VALID,19.2348,VALID,139,VALID,0.811328,
2014-06-01, 07:11:04,VALID,916.326,VALID,0,VALID,97.2062,VALID,114.64,VALID,19.2948,VALID,154,VALID,0.807031,
2014-06-01, 07:12:04,VALID,916.348,VALID,0,VALID,97.2062,VALID,117.541,VALID,19.2738,VALID,150,VALID,1.24844,
2014-06-01, 07:13:04,VALID,916.338,VALID,0,VALID,97.1909,VALID,119.045,VALID,19.2948,VALID,146,VALID,0.710938,
2014-06-01, 07:14:04,VALID,916.352,VALID,0,VALID,97.1833,VALID,120.442,VALID,19.2738,VALID,143,VALID,0.916406,
2014-06-01, 07:15:04,VALID,916.363,VALID,0,VALID,97.1833,VALID,123.557,VALID,19.2933,VALID,141,VALID,0.835547,
2014-06-01, 07:16:04,VALID,916.369,VALID,0,VALID,97.1909,VALID,127.64,VALID,19.2738,VALID,140,VALID,1.55313,
2014-06-01, 07:17:04,VALID,916.388,VALID,0,VALID,97.1986,VALID,130.971,VALID,19.3143,VALID,157,VALID,1.02031,
2014-06-01, 07:18:04,VALID,916.393,VALID,0,VALID,97.1757,VALID,134.516,VALID,19.3518,VALID,161,VALID,0.721484,
2014-06-01, 07:19:04,VALID,916.414,VALID,0,VALID,97.1757,VALID,135.054,VALID,19.3713,VALID,163,VALID,0.717578,
2014-06-01, 07:20:04,VALID,916.422,VALID,0,VALID,97.1757,VALID,131.83,VALID,19.4118,VALID,142,VALID,0.463672,
2014-06-01, 07:21:04,VALID,916.456,VALID,0,VALID,97.1681,VALID,144.293,VALID,19.3908,VALID,151,VALID,0.833984,
2014-06-01, 07:22:04,VALID,916.468,VALID,0,VALID,97.2062,VALID,143.756,VALID,19.3308,VALID,164,VALID,1.03906,
2014-06-01, 07:23:04,VALID,916.49,VALID,0,VALID,97.1909,VALID,145.475,VALID,19.3908,VALID,155,VALID,0.534766,
2014-06-01, 07:24:04,VALID,916.518,VALID,0,VALID,97.1681,VALID,151.599,VALID,19.4298,VALID,155,VALID,0.664453,
2014-06-01, 07:25:04,VALID,916.562,VALID,0,VALID,97.1681,VALID,152.566,VALID,19.4298,VALID,155,VALID,0.358203,
2014-06-01, 07:26:04,VALID,916.568,VALID,0,VALID,97.1528,VALID,159.335,VALID,19.5468,VALID,162,VALID,0.566406,
2014-06-01, 07:27:04,VALID,916.609,VALID,0,VALID,97.1376,VALID,171.154,VALID,19.6233,VALID,184,VALID,0.830078,
2014-06-01, 07:28:04,VALID,916.615,VALID,0,VALID,97.1147,VALID,165.03,VALID,19.6638,VALID,182,VALID,0.945703,
2014-06-01, 07:29:04,VALID,916.631,VALID,0,VALID,97.1299,VALID,161.806,VALID,19.7223,VALID,189,VALID,0.775,
2014-06-01, 07:30:04,VALID,916.62,VALID,0,VALID,97.0842,VALID,170.187,VALID,19.8003,VALID,178,VALID,0.222266,
2014-06-01, 07:31:04,VALID,916.619,VALID,0,VALID,97.069,VALID,170.294,VALID,19.8213,VALID,142,VALID,1.14375,
2014-06-01, 07:32:04,VALID,916.605,VALID,0,VALID,97.0918,VALID,175.774,VALID,19.9188,VALID,128,VALID,0.750781,
2014-06-01, 07:33:04,VALID,916.611,VALID,0,VALID,97.0918,VALID,182.113,VALID,19.8798,VALID,142,VALID,0.773828,
2014-06-01, 07:34:04,VALID,916.617,VALID,0,VALID,97.1299,VALID,186.948,VALID,19.7628,VALID,138,VALID,1.28984,
2014-06-01, 07:35:04,VALID,916.634,VALID,0,VALID,97.0918,VALID,191.245,VALID,19.7613,VALID,127,VALID,1.17461,
2014-06-01, 07:36:04,VALID,916.619,VALID,0,VALID,97.0613,VALID,194.468,VALID,19.8783,VALID,117,VALID,0.898438,
2014-06-01, 07:37:04,VALID,916.652,VALID,0,VALID,97.0537,VALID,198.229,VALID,19.9173,VALID,143,VALID,1.08672,
2014-06-01, 07:38:04,VALID,916.657,VALID,0,VALID,97.0766,VALID,201.345,VALID,19.9158,VALID,121,VALID,0.6375,
2014-06-01, 07:39:04,VALID,916.67,VALID,0,VALID,97.0156,VALID,204.461,VALID,20.0553,VALID,133,VALID,0.494531,
2014-06-01, 07:40:04,VALID,916.655,VALID,0,VALID,97.0232,VALID,206.18,VALID,20.0313,VALID,137,VALID,0.94375,
2014-06-01, 07:41:04,VALID,916.667,VALID,0,VALID,96.9927,VALID,208.221,VALID,20.1483,VALID,114,VALID,0.532812,
2014-06-01, 07:42:04,VALID,916.694,VALID,0,VALID,96.9851,VALID,209.188,VALID,20.2684,VALID,97,VALID,0.420312,
2014-06-01, 07:43:04,VALID,916.682,VALID,0,VALID,96.9851,VALID,211.874,VALID,20.3089,VALID,118,VALID,0.701953,
2014-06-01, 07:44:04,VALID,916.707,VALID,0,VALID,96.9851,VALID,216.494,VALID,20.1888,VALID,133,VALID,0.952344,
2014-06-01, 07:45:04,VALID,916.713,VALID,0,VALID,96.9622,VALID,220.039,VALID,20.2278,VALID,125,VALID,0.823047,
2014-06-01, 07:46:04,VALID,916.707,VALID,0,VALID,96.9851,VALID,224.445,VALID,20.1903,VALID,120,VALID,1.23984,
2014-06-01, 07:47:04,VALID,916.726,VALID,0,VALID,96.9317,VALID,229.172,VALID,20.2278,VALID,134,VALID,0.769531,
2014-06-01, 07:48:04,VALID,916.735,VALID,0,VALID,96.9241,VALID,231.428,VALID,20.2504,VALID,142,VALID,0.903906,
2014-06-01, 07:49:04,VALID,916.734,VALID,0,VALID,96.9012,VALID,234.651,VALID,20.2653,VALID,122,VALID,0.741797,
2014-06-01, 07:50:04,VALID,916.752,VALID,0,VALID,96.8707,VALID,237.982,VALID,20.3628,VALID,114,VALID,0.836719,
2014-06-01, 07:51:04,VALID,916.742,VALID,0,VALID,96.8479,VALID,242.065,VALID,20.4439,VALID,130,VALID,0.733984,
2014-06-01, 07:52:04,VALID,916.785,VALID,0,VALID,96.8098,VALID,245.825,VALID,20.5804,VALID,104,VALID,0.741797,
2014-06-01, 07:53:04,VALID,916.761,VALID,0,VALID,96.7716,VALID,249.263,VALID,20.7365,VALID,99,VALID,0.796094,
